Change the Weather History Date:

Sunday, December 23, 2012

  Actual Average Record
Temperature  
Mean Temperature 54 °F -  
Max Temperature 59 °F 62 °F 78 °F (1999)
Min Temperature 48 °F 39 °F 17 °F (1990)
Degree Days  
Heating Degree Days 12    
Growing Degree Days 4 (Base 50)    
Moisture  
Dew Point 53 °F    
Average Humidity 92    
Maximum Humidity 100    
Minimum Humidity 78    
Precipitation  
Precipitation 0.67 in - - ()
Sea Level Pressure  
Sea Level Pressure 30.10 in    
Wind  
Wind Speed 6 mph (South)    
Max Wind Speed 17 mph    
Max Gust Speed 28 mph    
Visibility 6 miles    
Events Rain    
Averages and records for this station are not official NWS values.
T = Trace of Precipitation, MM = Missing Value Source: NWS Daily Summary

Daily Weather History Graph

Daily Weather History Graph

Search for Another Location

Airport or City:

Trip Planner

Search our weather history database for the weather conditions in past years. The results will help you decide how hot, cold, wet, or windy it might be!

Date:

Astronomy

Dec. 23, 2012 Rise Set
Actual Time 7:08 AM PST 4:55 PM PST
Civil Twilight 6:40 AM PST 5:23 PM PST
Nautical Twilight 6:08 AM PST 5:55 PM PST
Astronomical Twilight 5:37 AM PST 6:26 PM PST
Moon 1:45 PM PST (12/23) 3:00 AM PST (12/23)
Length of Visible Light 10h 43m
Length of Day
9h 47m
Waxing Gibbous, 82% of the Moon is Illuminated
Dec 23
Waxing Gibbous
Dec 28
Full
Jan 4
Last Quarter
Jan 11
New
Jan 18
First Quarter

Hourly Weather History & Observations

Time (PST) Temp. Dew Point Humidity Pressure Visibility Wind Dir Wind Speed Gust Speed Precip Events Conditions
12:09 AM 53.6 °F 51.8 °F 94% 30.17 in 10.0 mi SE 3.5 mph - 0.00 in   Overcast
12:21 AM 53.6 °F 51.8 °F 94% 30.17 in 10.0 mi NE 3.5 mph - 0.00 in Rain Light Rain
12:56 AM 53.1 °F 52.0 °F 96% 30.17 in 10.0 mi East 5.8 mph - 0.00 in   Overcast
1:19 AM 53.6 °F 51.8 °F 94% 30.17 in 10.0 mi SE 4.6 mph - 0.00 in   Overcast
1:33 AM 53.6 °F 51.8 °F 94% 30.17 in 10.0 mi Calm Calm - 0.00 in Rain Light Rain
1:56 AM 52.0 °F 51.1 °F 97% 30.17 in 10.0 mi ENE 4.6 mph - 0.00 in   Scattered Clouds
2:56 AM 51.1 °F 50.0 °F 96% 30.18 in 10.0 mi East 3.5 mph - N/A   Partly Cloudy
3:29 AM 50.0 °F 48.2 °F 94% 30.17 in 10.0 mi Calm Calm - N/A   Mostly Cloudy
3:56 AM 50.0 °F 48.9 °F 96% 30.17 in 10.0 mi ESE 3.5 mph - N/A   Mostly Cloudy
4:04 AM 48.2 °F 48.2 °F 100% 30.16 in 10.0 mi Calm Calm - N/A   Mostly Cloudy
4:56 AM 48.9 °F 48.0 °F 97% 30.15 in 10.0 mi Calm Calm - N/A   Clear
5:56 AM 48.0 °F 46.9 °F 96% 30.15 in 10.0 mi Calm Calm - N/A   Scattered Clouds
6:56 AM 48.9 °F 48.0 °F 97% 30.17 in 10.0 mi Calm Calm - N/A   Overcast
7:03 AM 48.2 °F 48.2 °F 100% 30.16 in 10.0 mi Calm Calm - N/A   Mostly Cloudy
7:56 AM 48.9 °F 48.0 °F 97% 30.18 in 10.0 mi Calm Calm - N/A   Mostly Cloudy
8:56 AM 52.0 °F 50.0 °F 93% 30.18 in 10.0 mi Calm Calm - N/A   Mostly Cloudy
9:56 AM 54.0 °F 50.0 °F 86% 30.18 in 10.0 mi SSE 5.8 mph - N/A   Mostly Cloudy
10:03 AM 53.6 °F 50.0 °F 88% 30.19 in 10.0 mi SSE 5.8 mph - N/A   Overcast
10:56 AM 55.0 °F 50.0 °F 83% 30.19 in 9.0 mi SSE 4.6 mph - 0.00 in Rain Light Rain
11:56 AM 55.9 °F 52.0 °F 87% 30.15 in 10.0 mi SE 6.9 mph - 0.03 in Rain Light Rain
12:31 PM 55.4 °F 51.8 °F 88% 30.12 in 10.0 mi South 5.8 mph - 0.00 in Rain Light Rain
12:56 PM 55.9 °F 53.1 °F 90% 30.12 in 10.0 mi SSE 6.9 mph - 0.00 in   Overcast
1:06 PM 57.2 °F 51.8 °F 82% 30.11 in 10.0 mi SSE 6.9 mph - N/A   Overcast
1:37 PM 57.2 °F 53.6 °F 88% 30.09 in 10.0 mi SE 9.2 mph - N/A   Overcast
1:56 PM 57.9 °F 53.1 °F 84% 30.10 in 10.0 mi South 9.2 mph - N/A   Overcast
2:56 PM 57.9 °F 51.1 °F 78% 30.08 in 10.0 mi South 11.5 mph - 0.00 in   Overcast
3:45 PM 57.2 °F 51.8 °F 82% 30.07 in 2.0 mi South 15.0 mph 23.0 mph 0.00 in Rain Light Rain
3:56 PM 55.9 °F 52.0 °F 87% 30.07 in 3.0 mi South 11.5 mph 20.7 mph 0.01 in Rain Light Rain
4:56 PM 57.0 °F 51.1 °F 81% 30.06 in 3.0 mi South 12.7 mph 17.3 mph 0.00 in   Haze
5:49 PM 55.4 °F 53.6 °F 94% 30.04 in 4.0 mi South 17.3 mph 27.6 mph 0.02 in Rain Light Rain
5:56 PM 55.9 °F 53.1 °F 90% 30.04 in 7.0 mi South 16.1 mph 26.5 mph 0.02 in Rain Light Rain
6:49 PM 55.4 °F 53.6 °F 94% 30.05 in 2.0 mi South 12.7 mph - 0.05 in Rain Rain
6:56 PM 55.9 °F 54.0 °F 93% 30.06 in 2.0 mi South 11.5 mph - 0.09 in Rain Rain
7:09 PM 55.4 °F 53.6 °F 94% 30.05 in 2.0 mi South 11.5 mph 21.9 mph 0.04 in Rain Rain
7:29 PM 55.4 °F 55.4 °F 100% 30.05 in 1.5 mi South 9.2 mph 19.6 mph 0.11 in Rain Rain
7:56 PM 57.0 °F 55.0 °F 93% 30.05 in 1.5 mi South 12.7 mph 23.0 mph 0.17 in Rain Light Rain
8:03 PM 57.2 °F 55.4 °F 94% 30.04 in 3.0 mi South 16.1 mph 20.7 mph 0.01 in Rain Light Rain
8:29 PM 57.2 °F 55.4 °F 94% 30.03 in 2.5 mi South 13.8 mph 24.2 mph 0.04 in Rain Light Rain
8:36 PM 57.2 °F 55.4 °F 94% 30.03 in 3.0 mi South 15.0 mph 27.6 mph 0.06 in Rain Rain
8:42 PM 57.2 °F 55.4 °F 94% 30.03 in 2.5 mi South 15.0 mph 27.6 mph 0.06 in Rain Light Rain
8:56 PM 57.9 °F 55.9 °F 93% 30.03 in 3.0 mi South 15.0 mph - 0.09 in Rain Light Rain
9:03 PM 57.2 °F 55.4 °F 94% 30.04 in 2.5 mi South 13.8 mph 24.2 mph 0.01 in Rain Light Rain
9:20 PM 57.2 °F 55.4 °F 94% 30.04 in 3.0 mi SSW 15.0 mph 23.0 mph 0.03 in Rain Light Rain
9:56 PM 57.9 °F 57.0 °F 97% 30.04 in 3.0 mi SSW 13.8 mph 21.9 mph 0.06 in Rain Rain
10:34 PM 59.0 °F 57.2 °F 94% 30.03 in 2.5 mi SSW 11.5 mph 23.0 mph 0.05 in Rain Light Rain
10:45 PM 59.0 °F 57.2 °F 94% 30.03 in 1.8 mi SSW 10.4 mph 18.4 mph 0.12 in Rain Light Rain
10:53 PM 59.0 °F 57.2 °F 94% 30.03 in 2.5 mi SSW 11.5 mph 17.3 mph 0.14 in Rain Light Rain
10:56 PM 59.0 °F 57.0 °F 93% 30.03 in 2.5 mi SSW 8.1 mph - 0.14 in Rain Rain
11:33 PM 59.0 °F 57.2 °F 94% 30.03 in 3.0 mi WSW 11.5 mph 21.9 mph 0.06 in Rain Light Rain
11:56 PM 59.0 °F 57.9 °F 96% 30.02 in 5.0 mi WSW 12.7 mph 20.7 mph 0.06 in Rain Light Rain